Change the Weather History Date:

Thursday, October 16, 2014

  Actual Average Record
Temperature  
Mean Temperature 63 °F 61 °F  
Max Temperature 76 °F 73 °F 85 °F (1938)
Min Temperature 49 °F 50 °F 35 °F (1955)
Degree Days  
Heating Degree Days 2 5  
Month to date heating degree days 30 53  
Since 1 July heating degree days 30 68  
Cooling Degree Days 0 1  
Month to date cooling degree days 77 37  
Year to date cooling degree days 1903 1726  
Growing Degree Days 6 (Base 50)    
Moisture  
Dew Point 49 °F    
Average Humidity 79    
Maximum Humidity 93    
Minimum Humidity 64    
Precipitation  
Precipitation T in 0.10 in 4.04 in (1932)
Month to date precipitation 5.96 1.70  
Year to date precipitation 37.09 41.00  
Snow  
Snow 0.00 in 0.00 in - ()
Month to date snowfall 0.0 0.0  
Since 1 July snowfall 0.0 0.0  
Since 1 September snowfall 0.0 0.0  
Snow Depth 0.00 in    
Sea Level Pressure  
Sea Level Pressure 29.90 in    
Wind  
Wind Speed 5 mph (West)    
Max Wind Speed 18 mph    
Max Gust Speed 24 mph    
Visibility 10 miles    
Events Rain    
T = Trace of Precipitation, MM = Missing Value Source: NWS Daily Summary

Daily Weather History Graph

Daily Weather History Graph

Search for Another Location

Airport or City:

Trip Planner

Search our weather history database for the weather conditions in past years. The results will help you decide how hot, cold, wet, or windy it might be!

Date:

Astronomy

Oct. 16, 2014 Rise Set
Actual Time 7:47 AM EDT 7:04 PM EDT
Civil Twilight 7:22 AM EDT 7:30 PM EDT
Nautical Twilight 6:52 AM EDT 7:59 PM EDT
Astronomical Twilight 6:23 AM EDT 8:28 PM EDT
Moon 1:11 AM EDT (10/16) 3:02 PM EDT (10/16)
Length of Visible Light 12h 08m
Length of Day
11h 16m
Last Quarter, 42% of the Moon is Illuminated
Oct 16
Last Quarter
Oct 23
New
Oct 30
First Quarter
Nov 6
Full
Nov 14
Last Quarter

Hourly Weather History & Observations

Time (EDT) Temp. Dew Point Humidity Pressure Visibility Wind Dir Wind Speed Gust Speed Precip Events Conditions
12:25 AM 57.0 °F 52.0 °F 83% 29.87 in 10.0 mi WSW 4.6 mph - 0.01 in Rain Light Rain
12:53 AM 55.9 °F 51.1 °F 84% 29.86 in 10.0 mi WSW 6.9 mph - 0.01 in   Overcast
1:17 AM 57.0 °F 51.1 °F 81% 29.87 in 10.0 mi SW 5.8 mph - N/A   Overcast
1:49 AM 57.2 °F 51.8 °F 82% 29.87 in 10.0 mi SW 5.8 mph - N/A   Overcast
1:53 AM 57.0 °F 51.1 °F 81% 29.86 in 10.0 mi SW 3.5 mph - N/A   Overcast
2:03 AM 57.0 °F 51.1 °F 81% 29.86 in 10.0 mi WSW 3.5 mph - N/A   Overcast
2:21 AM 57.0 °F 51.1 °F 81% 29.87 in 10.0 mi West 6.9 mph - N/A   Overcast
2:53 AM 57.2 °F 50.0 °F 77% 29.87 in 10.0 mi West 5.8 mph - N/A   Overcast
3:06 AM 57.0 °F 50.0 °F 77% 29.86 in 10.0 mi WSW 4.6 mph - N/A   Overcast
3:50 AM 55.4 °F 48.2 °F 77% 29.85 in 10.0 mi WSW 5.8 mph - N/A   Mostly Cloudy
3:53 AM 55.9 °F 48.9 °F 77% 29.84 in 10.0 mi WSW 5.8 mph - N/A   Mostly Cloudy
4:53 AM 55.9 °F 48.9 °F 77% 29.83 in 10.0 mi WSW 3.5 mph - N/A   Mostly Cloudy
5:38 AM 55.9 °F 48.9 °F 77% 29.85 in 10.0 mi WSW 3.5 mph - N/A   Overcast
5:53 AM 55.9 °F 48.9 °F 77% 29.84 in 10.0 mi South 3.5 mph - N/A   Overcast
6:53 AM 57.0 °F 50.0 °F 77% 29.86 in 10.0 mi Calm Calm - N/A   Overcast
7:53 AM 57.0 °F 48.9 °F 74% 29.88 in 10.0 mi WSW 6.9 mph - N/A   Mostly Cloudy
8:53 AM 57.0 °F 48.9 °F 74% 29.90 in 10.0 mi WNW 6.9 mph - N/A   Mostly Cloudy
9:53 AM 57.9 °F 48.9 °F 72% 29.92 in 10.0 mi West 6.9 mph - 0.00 in   Light Drizzle
10:53 AM 59.0 °F 50.0 °F 72% 29.93 in 10.0 mi WNW 8.1 mph - N/A   Mostly Cloudy
11:53 AM 60.1 °F 48.9 °F 67% 29.94 in 10.0 mi WNW 10.4 mph - N/A   Mostly Cloudy
12:23 PM 60.1 °F 48.9 °F 67% 29.95 in 10.0 mi NW 8.1 mph 16.1 mph N/A   Mostly Cloudy
12:53 PM 57.9 °F 48.9 °F 72% 29.95 in 10.0 mi NW 11.5 mph - N/A   Mostly Cloudy
1:53 PM 60.1 °F 48.9 °F 67% 29.94 in 10.0 mi WNW 10.4 mph - N/A   Mostly Cloudy
2:53 PM 60.1 °F 48.9 °F 67% 29.94 in 10.0 mi NW 12.7 mph - N/A   Mostly Cloudy
3:53 PM 61.0 °F 48.9 °F 64% 29.94 in 10.0 mi WNW 11.5 mph - N/A   Mostly Cloudy
4:53 PM 61.0 °F 48.9 °F 64% 29.95 in 10.0 mi NW 6.9 mph - N/A   Mostly Cloudy
5:53 PM 60.1 °F 48.0 °F 64% 29.94 in 10.0 mi Calm Calm - N/A   Mostly Cloudy
6:53 PM 59.0 °F 48.0 °F 67% 29.94 in 10.0 mi North 4.6 mph - N/A   Partly Cloudy
7:53 PM 55.0 °F 48.9 °F 80% 29.95 in 10.0 mi Calm Calm - N/A   Partly Cloudy
8:53 PM 53.1 °F 50.0 °F 89% 29.96 in 10.0 mi Calm Calm - N/A   Clear
9:53 PM 52.0 °F 48.9 °F 89% 29.97 in 10.0 mi Calm Calm - N/A   Clear
10:53 PM 51.1 °F 48.9 °F 92% 29.97 in 10.0 mi Calm Calm - N/A   Clear
11:53 PM 50.0 °F 48.0 °F 93% 29.96 in 10.0 mi Calm Calm - N/A   Clear